Time,TemperatureF,DewpointF,PressureIn,WindDirection,WindDirectionDegrees,WindSpeedMPH,WindSpeedGustMPH,Humidity,HourlyPrecipIn,Conditions,Clouds,dailyrainin,SoftwareType,DateUTC
2013-01-07 00:08:00,70.3,68.8,30.13,West,266,0.0,0.0,95,0.00,,,0.00,Wunderground v.1.15,2013-01-07 05:08:00,
2013-01-07 00:18:00,70.4,68.9,30.13,West,268,0.0,0.0,95,0.00,,,0.00,Wunderground v.1.15,2013-01-07 05:18:00,
2013-01-07 00:29:00,70.4,68.9,30.12,West,280,0.0,0.0,95,0.00,,,0.00,Wunderground v.1.15,2013-01-07 05:29:00,
2013-01-07 00:38:00,70.4,68.9,30.12,WNW,300,0.0,2.0,95,0.00,,,0.00,Wunderground v.1.15,2013-01-07 05:38:00,
2013-01-07 00:49:00,70.2,68.7,30.12,NW,316,2.0,2.0,95,0.00,,,0.00,Wunderground v.1.15,2013-01-07 05:49:00,
2013-01-07 00:59:00,70.0,68.5,30.12,WNW,295,1.0,1.0,95,0.00,,,0.00,Wunderground v.1.15,2013-01-07 05:59:00,
2013-01-07 01:08:00,69.9,68.4,30.12,NW,311,1.0,2.0,95,0.00,,,0.00,Wunderground v.1.15,2013-01-07 06:08:00,
2013-01-07 01:19:00,69.7,68.2,30.11,NNW,342,2.0,2.0,95,0.00,,,0.00,Wunderground v.1.15,2013-01-07 06:19:00,
2013-01-07 01:29:00,69.6,68.1,30.11,NNW,333,1.0,1.0,95,0.00,,,0.00,Wunderground v.1.15,2013-01-07 06:29:00,
2013-01-07 01:38:00,69.4,68.2,30.11,NW,314,1.0,3.0,96,0.00,,,0.00,Wunderground v.1.15,2013-01-07 06:38:00,
2013-01-07 01:49:00,69.2,68.0,30.11,NW,316,1.0,1.0,96,0.00,,,0.00,Wunderground v.1.15,2013-01-07 06:49:00,
2013-01-07 01:59:00,69.2,68.0,30.11,NW,321,2.0,2.0,96,0.00,,,0.00,Wunderground v.1.15,2013-01-07 06:59:00,
2013-01-07 02:08:00,69.0,67.8,30.11,NW,323,2.0,2.0,96,0.00,,,0.00,Wunderground v.1.15,2013-01-07 07:08:00,
2013-01-07 02:19:00,68.8,67.6,30.10,NW,314,2.0,2.0,96,0.00,,,0.00,Wunderground v.1.15,2013-01-07 07:19:00,
2013-01-07 02:29:00,68.9,67.7,30.10,NNW,347,2.0,2.0,96,0.00,,,0.00,Wunderground v.1.15,2013-01-07 07:29:00,
2013-01-07 02:38:00,68.8,67.6,30.10,NNW,334,2.0,3.0,96,0.00,,,0.00,Wunderground v.1.15,2013-01-07 07:38:00,
2013-01-07 02:48:00,68.7,67.5,30.09,NNW,347,3.0,3.0,96,0.00,,,0.00,Wunderground v.1.15,2013-01-07 07:48:00,
2013-01-07 02:59:00,68.6,67.7,30.10,NW,326,3.0,3.0,97,0.00,,,0.00,Wunderground v.1.15,2013-01-07 07:59:00,
2013-01-07 03:08:00,68.5,67.6,30.10,NW,320,3.0,3.0,97,0.00,,,0.00,Wunderground v.1.15,2013-01-07 08:08:00,
2013-01-07 03:18:00,68.4,67.2,30.10,North,352,3.0,3.0,96,0.00,,,0.00,Wunderground v.1.15,2013-01-07 08:18:00,
2013-01-07 03:29:00,68.3,67.4,30.10,North,349,2.0,2.0,97,0.00,,,0.00,Wunderground v.1.15,2013-01-07 08:29:00,
2013-01-07 03:39:00,68.1,66.9,30.10,NNW,330,1.0,1.0,96,0.00,,,0.00,Wunderground v.1.15,2013-01-07 08:39:00,
2013-01-07 03:48:00,68.0,66.8,30.09,NW,315,1.0,2.0,96,0.00,,,0.00,Wunderground v.1.15,2013-01-07 08:48:00,
2013-01-07 03:59:00,67.9,66.7,30.09,NW,318,0.0,0.0,96,0.00,,,0.00,Wunderground v.1.15,2013-01-07 08:59:00,
2013-01-07 04:09:00,67.9,67.0,30.09,North,358,2.0,2.0,97,0.00,,,0.00,Wunderground v.1.15,2013-01-07 09:09:00,
2013-01-07 04:18:00,68.0,67.1,30.09,NNW,346,2.0,2.0,97,0.00,,,0.00,Wunderground v.1.15,2013-01-07 09:18:00,
2013-01-07 04:28:00,68.0,66.8,30.08,North,352,3.0,3.0,96,0.00,,,0.00,Wunderground v.1.15,2013-01-07 09:28:00,
2013-01-07 04:39:00,67.9,66.7,30.09,NNW,330,3.0,3.0,96,0.00,,,0.00,Wunderground v.1.15,2013-01-07 09:39:00,
2013-01-07 04:48:00,67.8,66.6,30.09,NNW,340,2.0,3.0,96,0.00,,,0.00,Wunderground v.1.15,2013-01-07 09:48:00,
2013-01-07 04:58:00,67.7,66.5,30.09,NNE,33,2.0,2.0,96,0.00,,,0.00,Wunderground v.1.15,2013-01-07 09:58:00,
2013-01-07 05:09:00,67.7,66.5,30.10,North,350,0.0,0.0,96,0.00,,,0.00,Wunderground v.1.15,2013-01-07 10:09:00,
2013-01-07 05:18:00,67.6,66.4,30.10,NNE,17,0.0,0.0,96,0.00,,,0.00,Wunderground v.1.15,2013-01-07 10:18:00,
2013-01-07 05:28:00,67.5,66.3,30.10,WNW,297,0.0,0.0,96,0.00,,,0.00,Wunderground v.1.15,2013-01-07 10:28:00,
2013-01-07 05:39:00,67.5,66.3,30.10,WNW,302,0.0,0.0,96,0.00,,,0.00,Wunderground v.1.15,2013-01-07 10:39:00,
2013-01-07 05:49:00,67.5,66.3,30.11,NW,326,1.0,1.0,96,0.00,,,0.00,Wunderground v.1.15,2013-01-07 10:49:00,
2013-01-07 05:59:00,67.6,66.4,30.11,NW,314,1.0,1.0,96,0.00,,,0.00,Wunderground v.1.15,2013-01-07 10:59:00,
2013-01-07 06:08:00,67.7,66.5,30.10,NNW,333,0.0,0.0,96,0.00,,,0.00,Wunderground v.1.15,2013-01-07 11:08:00,
2013-01-07 06:18:00,67.7,66.5,30.11,North,11,0.0,0.0,96,0.00,,,0.00,Wunderground v.1.15,2013-01-07 11:18:00,
2013-01-07 06:28:00,67.6,66.4,30.11,NW,318,0.0,0.0,96,0.00,,,0.00,Wunderground v.1.15,2013-01-07 11:28:00,
2013-01-07 06:38:00,67.6,66.4,30.11,NNW,340,1.0,2.0,96,0.00,,,0.00,Wunderground v.1.15,2013-01-07 11:38:00,
2013-01-07 06:49:00,67.7,66.5,30.11,North,9,2.0,2.0,96,0.00,,,0.00,Wunderground v.1.15,2013-01-07 11:49:00,
2013-01-07 06:58:00,67.7,66.5,30.12,North,350,1.0,1.0,96,0.00,,,0.00,Wunderground v.1.15,2013-01-07 11:58:00,
2013-01-07 07:08:00,67.7,66.5,30.12,NW,326,1.0,2.0,96,0.00,,,0.00,Wunderground v.1.15,2013-01-07 12:08:00,
2013-01-07 07:19:00,67.7,66.5,30.13,NNW,348,2.0,2.0,96,0.00,,,0.00,Wunderground v.1.15,2013-01-07 12:19:00,
2013-01-07 07:29:00,68.1,66.9,30.14,North,9,2.0,2.0,96,0.00,,,0.01,Wunderground v.1.15,2013-01-07 12:29:00,
2013-01-07 07:38:00,68.3,66.8,30.14,NNE,21,3.0,3.0,95,0.00,,,0.01,Wunderground v.1.15,2013-01-07 12:38:00,
2013-01-07 07:49:00,68.4,66.9,30.14,North,359,3.0,3.0,95,0.00,,,0.01,Wunderground v.1.15,2013-01-07 12:49:00,
2013-01-07 07:59:00,68.5,67.0,30.15,North,356,3.0,4.0,95,0.00,,,0.01,Wunderground v.1.15,2013-01-07 12:59:00,
2013-01-07 08:08:00,68.7,67.2,30.15,NW,314,3.0,3.0,95,0.00,,,0.01,Wunderground v.1.15,2013-01-07 13:08:00,
2013-01-07 08:19:00,68.9,66.8,30.16,North,353,4.0,5.0,93,0.00,,,0.01,Wunderground v.1.15,2013-01-07 13:19:00,
2013-01-07 08:29:00,69.1,67.0,30.16,NE,34,3.0,3.0,93,0.00,,,0.01,Wunderground v.1.15,2013-01-07 13:29:00,
2013-01-07 08:38:00,69.4,67.0,30.16,North,1,3.0,4.0,92,0.00,,,0.01,Wunderground v.1.15,2013-01-07 13:38:00,
2013-01-07 08:49:00,69.8,67.7,30.16,NE,34,3.0,3.0,93,0.00,,,0.01,Wunderground v.1.15,2013-01-07 13:49:00,
2013-01-07 08:59:00,70.1,68.0,30.16,NNE,22,4.0,4.0,93,0.00,,,0.01,Wunderground v.1.15,2013-01-07 13:59:00,
2013-01-07 09:08:00,70.1,68.3,30.17,NNW,333,3.0,3.0,94,0.00,,,0.01,Wunderground v.1.15,2013-01-07 14:08:00,
2013-01-07 09:19:00,70.3,68.5,30.17,NNE,32,4.0,5.0,94,0.00,,,0.01,Wunderground v.1.15,2013-01-07 14:19:00,
2013-01-07 09:29:00,70.5,68.7,30.17,NNE,29,3.0,3.0,94,0.00,,,0.01,Wunderground v.1.15,2013-01-07 14:29:00,
2013-01-07 09:38:00,70.6,68.8,30.17,North,11,4.0,4.0,94,0.00,,,0.01,Wunderground v.1.15,2013-01-07 14:38:00,
2013-01-07 09:49:00,70.7,68.9,30.18,ENE,69,4.0,4.0,94,0.00,,,0.01,Wunderground v.1.15,2013-01-07 14:49:00,
2013-01-07 09:59:00,70.3,68.5,30.18,ENE,75,6.0,6.0,94,0.15,,,0.04,Wunderground v.1.15,2013-01-07 14:59:00,
2013-01-07 10:09:00,69.8,68.3,30.18,East,85,5.0,5.0,95,0.18,,,0.07,Wunderground v.1.15,2013-01-07 15:09:00,
2013-01-07 10:18:00,69.4,67.9,30.18,ENE,77,3.0,3.0,95,0.12,,,0.09,Wunderground v.1.15,2013-01-07 15:18:00,
2013-01-07 10:29:00,69.4,67.9,30.18,ENE,67,2.0,3.0,95,0.08,,,0.10,Wunderground v.1.15,2013-01-07 15:29:00,
2013-01-07 10:39:00,69.3,68.1,30.18,East,84,3.0,3.0,96,0.00,,,0.10,Wunderground v.1.15,2013-01-07 15:39:00,
2013-01-07 10:48:00,69.4,68.2,30.18,ESE,105,1.0,1.0,96,0.00,,,0.11,Wunderground v.1.15,2013-01-07 15:48:00,
2013-01-07 10:58:00,69.2,68.0,30.18,East,96,2.0,2.0,96,0.05,,,0.12,Wunderground v.1.15,2013-01-07 15:58:00,
2013-01-07 11:09:00,69.3,68.1,30.17,ESE,120,2.0,2.0,96,0.04,,,0.12,Wunderground v.1.15,2013-01-07 16:09:00,
2013-01-07 11:18:00,69.2,68.0,30.17,East,96,2.0,4.0,96,0.04,,,0.13,Wunderground v.1.15,2013-01-07 16:18:00,
2013-01-07 11:28:00,69.3,68.1,30.17,East,97,2.0,2.0,96,0.05,,,0.14,Wunderground v.1.15,2013-01-07 16:28:00,
2013-01-07 11:39:00,69.4,68.2,30.16,SE,143,2.0,2.0,96,0.04,,,0.14,Wunderground v.1.15,2013-01-07 16:39:00,
2013-01-07 11:48:00,69.5,68.3,30.16,SW,232,1.0,2.0,96,0.00,,,0.14,Wunderground v.1.15,2013-01-07 16:48:00,
2013-01-07 11:59:00,70.1,68.9,30.15,West,267,1.0,3.0,96,0.00,,,0.14,Wunderground v.1.15,2013-01-07 16:59:00,
2013-01-07 12:08:00,70.4,69.2,30.14,WNW,295,3.0,3.0,96,0.00,,,0.14,Wunderground v.1.15,2013-01-07 17:08:00,
2013-01-07 12:19:00,70.8,69.3,30.13,West,281,3.0,4.0,95,0.00,,,0.14,Wunderground v.1.15,2013-01-07 17:19:00,
2013-01-07 12:29:00,71.3,69.5,30.13,West,259,4.0,4.0,94,0.00,,,0.14,Wunderground v.1.15,2013-01-07 17:29:00,
2013-01-07 12:39:00,71.7,69.9,30.12,NW,309,4.0,4.0,94,0.00,,,0.14,Wunderground v.1.15,2013-01-07 17:39:00,
2013-01-07 12:48:00,71.9,69.4,30.12,NW,326,4.0,4.0,92,0.00,,,0.14,Wunderground v.1.15,2013-01-07 17:48:00,
2013-01-07 12:59:00,71.4,68.6,30.12,NNW,332,5.0,6.0,91,0.00,,,0.14,Wunderground v.1.15,2013-01-07 17:59:00,
2013-01-07 13:09:00,71.2,68.4,30.12,NNW,338,4.0,4.0,91,0.00,,,0.14,Wunderground v.1.15,2013-01-07 18:09:00,
2013-01-07 13:18:00,71.4,68.6,30.11,NW,323,3.0,3.0,91,0.00,,,0.14,Wunderground v.1.15,2013-01-07 18:18:00,
2013-01-07 13:29:00,71.6,68.5,30.11,North,352,3.0,3.0,90,0.00,,,0.14,Wunderground v.1.15,2013-01-07 18:29:00,
2013-01-07 13:39:00,71.7,68.6,30.11,NW,306,3.0,3.0,90,0.00,,,0.14,Wunderground v.1.15,2013-01-07 18:39:00,
2013-01-07 13:48:00,71.7,68.3,30.11,WNW,290,3.0,4.0,89,0.00,,,0.14,Wunderground v.1.15,2013-01-07 18:48:00,
2013-01-07 13:58:00,72.0,68.6,30.11,North,356,4.0,4.0,89,0.00,,,0.14,Wunderground v.1.15,2013-01-07 18:58:00,
2013-01-07 14:09:00,72.2,69.1,30.10,North,352,5.0,5.0,90,0.00,,,0.14,Wunderground v.1.15,2013-01-07 19:09:00,
2013-01-07 14:18:00,72.5,69.4,30.10,NNE,19,5.0,5.0,90,0.00,,,0.14,Wunderground v.1.15,2013-01-07 19:18:00,
2013-01-07 14:28:00,72.3,69.2,30.10,NNE,20,6.0,6.0,90,0.00,,,0.14,Wunderground v.1.15,2013-01-07 19:28:00,
2013-01-07 14:39:00,72.4,68.3,30.10,NE,39,4.0,4.0,87,0.00,,,0.14,Wunderground v.1.15,2013-01-07 19:39:00,
2013-01-07 14:49:00,73.2,68.8,30.09,North,349,4.0,4.0,86,0.00,,,0.14,Wunderground v.1.15,2013-01-07 19:49:00,
2013-01-07 14:58:00,73.3,68.5,30.09,NE,39,5.0,5.0,85,0.00,,,0.14,Wunderground v.1.15,2013-01-07 19:58:00,
2013-01-07 15:08:00,73.8,69.0,30.09,NW,314,4.0,4.0,85,0.00,,,0.14,Wunderground v.1.15,2013-01-07 20:08:00,
2013-01-07 15:19:00,74.3,68.8,30.09,NW,318,4.0,4.0,83,0.00,,,0.14,Wunderground v.1.15,2013-01-07 20:19:00,
2013-01-07 15:28:00,74.5,69.0,30.09,NNW,342,4.0,6.0,83,0.00,,,0.14,Wunderground v.1.15,2013-01-07 20:28:00,
2013-01-07 15:39:00,74.3,69.1,30.09,NNE,16,5.0,6.0,84,0.00,,,0.14,Wunderground v.1.15,2013-01-07 20:39:00,
2013-01-07 15:48:00,73.8,69.0,30.10,North,11,3.0,3.0,85,0.00,,,0.14,Wunderground v.1.15,2013-01-07 20:48:00,
2013-01-07 15:58:00,73.5,68.7,30.10,NE,53,4.0,8.0,85,0.00,,,0.14,Wunderground v.1.15,2013-01-07 20:58:00,
2013-01-07 16:08:00,73.4,69.0,30.10,NW,312,5.0,5.0,86,0.00,,,0.14,Wunderground v.1.15,2013-01-07 21:08:00,
2013-01-07 16:18:00,73.1,69.0,30.10,NNW,334,4.0,5.0,87,0.00,,,0.14,Wunderground v.1.15,2013-01-07 21:18:00,
2013-01-07 16:28:00,73.2,69.1,30.10,NE,44,3.0,3.0,87,0.00,,,0.14,Wunderground v.1.15,2013-01-07 21:28:00,
2013-01-07 16:38:00,73.3,69.2,30.10,NW,304,4.0,4.0,87,0.00,,,0.14,Wunderground v.1.15,2013-01-07 21:38:00,
2013-01-07 16:49:00,73.4,69.3,30.10,NNE,23,4.0,4.0,87,0.00,,,0.14,Wunderground v.1.15,2013-01-07 21:49:00,
2013-01-07 16:58:00,73.3,69.2,30.10,NE,47,4.0,4.0,87,0.00,,,0.14,Wunderground v.1.15,2013-01-07 21:58:00,
2013-01-07 17:08:00,73.1,69.0,30.10,NE,46,5.0,5.0,87,0.00,,,0.14,Wunderground v.1.15,2013-01-07 22:08:00,
2013-01-07 17:19:00,72.9,68.8,30.11,NE,47,6.0,6.0,87,0.00,,,0.14,Wunderground v.1.15,2013-01-07 22:19:00,
2013-01-07 17:28:00,72.9,69.1,30.11,North,351,5.0,5.0,88,0.00,,,0.14,Wunderground v.1.15,2013-01-07 22:28:00,
2013-01-07 17:38:00,72.8,69.4,30.11,ENE,57,4.0,4.0,89,0.00,,,0.14,Wunderground v.1.15,2013-01-07 22:38:00,
2013-01-07 17:49:00,72.8,69.4,30.11,NNE,18,4.0,7.0,89,0.00,,,0.14,Wunderground v.1.15,2013-01-07 22:49:00,
2013-01-07 17:59:00,72.8,69.0,30.12,NNE,27,3.0,5.0,88,0.00,,,0.14,Wunderground v.1.15,2013-01-07 22:59:00,
2013-01-07 18:09:00,72.7,68.9,30.12,NE,37,3.0,3.0,88,0.00,,,0.14,Wunderground v.1.15,2013-01-07 23:09:00,
2013-01-07 18:18:00,72.6,68.8,30.12,NE,34,2.0,2.0,88,0.00,,,0.14,Wunderground v.1.15,2013-01-07 23:18:00,
2013-01-07 18:28:00,72.6,68.8,30.12,NNE,27,1.0,1.0,88,0.00,,,0.14,Wunderground v.1.15,2013-01-07 23:28:00,
2013-01-07 18:39:00,72.6,69.2,30.13,NNE,15,1.0,1.0,89,0.00,,,0.14,Wunderground v.1.15,2013-01-07 23:39:00,
2013-01-07 18:49:00,72.8,69.4,30.13,NNE,16,1.0,1.0,89,0.00,,,0.14,Wunderground v.1.15,2013-01-07 23:49:00,
2013-01-07 18:58:00,72.8,69.4,30.13,ENE,63,0.0,2.0,89,0.00,,,0.14,Wunderground v.1.15,2013-01-07 23:58:00,
2013-01-07 19:08:00,72.8,69.4,30.13,ENE,77,1.0,1.0,89,0.00,,,0.14,Wunderground v.1.15,2013-01-08 00:08:00,
2013-01-07 19:19:00,73.0,69.2,30.14,NE,39,2.0,2.0,88,0.00,,,0.14,Wunderground v.1.15,2013-01-08 00:19:00,
2013-01-07 19:28:00,73.2,69.4,30.14,NE,41,1.0,1.0,88,0.00,,,0.14,Wunderground v.1.15,2013-01-08 00:28:00,
2013-01-07 19:38:00,73.3,69.2,30.14,NE,46,1.0,1.0,87,0.00,,,0.14,Wunderground v.1.15,2013-01-08 00:38:00,
2013-01-07 19:49:00,73.3,69.2,30.14,NNE,32,1.0,1.0,87,0.00,,,0.14,Wunderground v.1.15,2013-01-08 00:49:00,
2013-01-07 19:58:00,73.1,69.0,30.14,NNW,342,1.0,1.0,87,0.00,,,0.14,Wunderground v.1.15,2013-01-08 00:58:00,
2013-01-07 20:08:00,72.7,68.9,30.14,NNW,342,1.0,1.0,88,0.00,,,0.14,Wunderground v.1.15,2013-01-08 01:08:00,
2013-01-07 20:18:00,72.3,68.9,30.14,NNW,330,0.0,0.0,89,0.00,,,0.14,Wunderground v.1.15,2013-01-08 01:18:00,
2013-01-07 20:28:00,71.9,68.8,30.15,WNW,300,1.0,2.0,90,0.00,,,0.14,Wunderground v.1.15,2013-01-08 01:28:00,
2013-01-07 20:38:00,71.5,68.7,30.15,NNW,343,1.0,1.0,91,0.00,,,0.14,Wunderground v.1.15,2013-01-08 01:38:00,
2013-01-07 20:48:00,71.2,68.4,30.15,NNW,336,1.0,1.0,91,0.00,,,0.14,Wunderground v.1.15,2013-01-08 01:48:00,
2013-01-07 20:58:00,71.0,68.2,30.15,NNW,336,0.0,0.0,91,0.00,,,0.14,Wunderground v.1.15,2013-01-08 01:58:00,
2013-01-07 21:08:00,70.8,68.4,30.15,NNW,338,0.0,0.0,92,0.00,,,0.14,Wunderground v.1.15,2013-01-08 02:08:00,
2013-01-07 21:18:00,70.7,68.3,30.15,NNW,339,0.0,0.0,92,0.00,,,0.14,Wunderground v.1.15,2013-01-08 02:18:00,
2013-01-07 21:29:00,70.4,68.0,30.14,NNW,347,0.0,0.0,92,0.00,,,0.14,Wunderground v.1.15,2013-01-08 02:29:00,
2013-01-07 21:38:00,70.3,68.2,30.14,NNW,346,0.0,0.0,93,0.00,,,0.14,Wunderground v.1.15,2013-01-08 02:38:00,
2013-01-07 21:48:00,70.2,68.1,30.15,NNW,346,0.0,0.0,93,0.00,,,0.14,Wunderground v.1.15,2013-01-08 02:48:00,
2013-01-07 21:59:00,70.3,68.2,30.15,NNW,347,0.0,0.0,93,0.00,,,0.14,Wunderground v.1.15,2013-01-08 02:59:00,
2013-01-07 22:08:00,71.2,69.7,30.15,ENE,64,2.0,4.0,95,0.00,,,0.15,Wunderground v.1.15,2013-01-08 03:08:00,
2013-01-07 22:18:00,72.4,69.9,30.14,East,82,5.0,5.0,92,0.00,,,0.15,Wunderground v.1.15,2013-01-08 03:18:00,
2013-01-07 22:29:00,72.7,69.9,30.14,SSE,149,4.0,4.0,91,0.00,,,0.15,Wunderground v.1.15,2013-01-08 03:29:00,
2013-01-07 22:39:00,71.9,68.5,30.14,East,91,6.0,6.0,89,1.83,,,0.33,Wunderground v.1.15,2013-01-08 03:39:00,
2013-01-07 22:48:00,71.4,69.0,30.14,ENE,70,3.0,3.0,92,0.11,,,0.38,Wunderground v.1.15,2013-01-08 03:48:00,
2013-01-07 22:58:00,71.4,69.3,30.13,NE,44,2.0,2.0,93,0.06,,,0.39,Wunderground v.1.15,2013-01-08 03:58:00,
2013-01-07 23:09:00,71.5,69.7,30.13,East,81,3.0,3.0,94,0.00,,,0.39,Wunderground v.1.15,2013-01-08 04:09:00,
2013-01-07 23:18:00,71.6,69.8,30.13,ESE,109,1.0,2.0,94,0.00,,,0.39,Wunderground v.1.15,2013-01-08 04:18:00,
2013-01-07 23:28:00,71.5,69.7,30.13,East,91,1.0,1.0,94,0.00,,,0.39,Wunderground v.1.15,2013-01-08 04:28:00,
2013-01-07 23:39:00,71.7,69.9,30.13,East,81,2.0,3.0,94,0.00,,,0.39,Wunderground v.1.15,2013-01-08 04:39:00,
2013-01-07 23:48:00,71.8,70.0,30.12,ENE,63,3.0,6.0,94,0.00,,,0.39,Wunderground v.1.15,2013-01-08 04:48:00,
2013-01-07 23:59:00,72.2,70.1,30.12,East,89,4.0,7.0,93,0.00,,,0.00,Wunderground v.1.15,2013-01-08 04:59:00,